Location: Alsip
(41.6689°N, 87.7387°W)
Time: 12:21:19
(UTC+00:00)

ISS - Pass Details

Date: 05 August 2021
Orbit: 419 x 423 km, 51.6° (Epoch: 21 September)

Event Time Altitude Azimuth Distance (km) Brightness Sun altitude
Rises 01:37:30 0° 295° (WNW) 2,377 2.8 -6.3°
Reaches altitude 10° 01:39:51 10° 281° (W) 1,507 0.5 -6.7°
Maximum altitude 01:42:38 24° 226° (SW) 926 -1.8 -7.1°
Drops below altitude 10° 01:45:23 10° 171° (S) 1,496 -1.3 -7.6°
Enters shadow 01:46:37 - 161° (SSE) 1,935 -0.8 -7.8°
